DLH19K EDDH-ESSA

Flight info

Callsign DLH19K
Flight time 1h 11m
Altitude 41000
Route LUGEG3G/33 LUGEG P605 MEGAR DCT KUBIS DCT MIKNA N851 PELUP Z226 NILUG
Aircraft A359/H-SDE2E3GHIJ3J4J5LM1ORWXY/LB1D1

Departure

Time 2026-05-04 17:48
Airport Hamburg Helmut Schmidt Airport (EDDH)

Arrival

Time 2026-05-04 19:00
Airport Stockholm-Arlanda Airport (ESSA)
Time Latitude Longitude Altitude Speed Heading
2026-05-04 17:17 53.62767 9.99405 52 ft 0 kts 244°
2026-05-04 17:23 53.62767 9.99406 52 ft 0 kts 244°
2026-05-04 17:34 53.62767 9.99407 52 ft 0 kts 244°
2026-05-04 17:38 53.62768 9.99410 52 ft 0 kts 244°
2026-05-04 17:39 53.62773 9.99425 50 ft 1 kts 232°
2026-05-04 17:39 53.62777 9.99433 49 ft 1 kts 221°
2026-05-04 17:39 53.62782 9.99439 46 ft 1 kts 209°
2026-05-04 17:40 53.62790 9.99446 47 ft 2 kts 198°
2026-05-04 17:40 53.62801 9.99451 49 ft 2 kts 191°
2026-05-04 17:40 53.62812 9.99453 47 ft 2 kts 180°
2026-05-04 17:40 53.62823 9.99452 46 ft 2 kts 172°
2026-05-04 17:41 53.62838 9.99447 46 ft 2 kts 164°
2026-05-04 17:41 53.62854 9.99437 48 ft 2 kts 158°
2026-05-04 17:41 53.62870 9.99427 48 ft 2 kts 153°
2026-05-04 17:41 53.62871 9.99426 48 ft 0 kts 152°
2026-05-04 17:43 53.62868 9.99429 48 ft 1 kts 152°
2026-05-04 17:43 53.62855 9.99440 47 ft 0 kts 152°
2026-05-04 17:44 53.62853 9.99442 47 ft 1 kts 152°
2026-05-04 17:44 53.62842 9.99452 45 ft 4 kts 152°
2026-05-04 17:44 53.62804 9.99486 44 ft 9 kts 152°
2026-05-04 17:44 53.62738 9.99546 51 ft 13 kts 152°
2026-05-04 17:45 53.62652 9.99631 50 ft 12 kts 139°
2026-05-04 17:45 53.62636 9.99719 50 ft 7 kts 95°
2026-05-04 17:45 53.62638 9.99734 50 ft 0 kts 78°
2026-05-04 17:46 53.62643 9.99766 50 ft 4 kts 70°
2026-05-04 17:47 53.62661 9.99815 51 ft 5 kts 49°
2026-05-04 17:47 53.62694 9.99854 52 ft 7 kts 22°
2026-05-04 17:47 53.62746 9.99848 52 ft 9 kts 343°
2026-05-04 17:47 53.62819 9.99784 52 ft 27 kts 332°
2026-05-04 17:48 53.63236 9.99420 48 ft 106 kts 334°
2026-05-04 17:48 53.64084 9.98652 147 ft 163 kts 331°
2026-05-04 17:48 53.65151 9.97792 643 ft 176 kts 333°
2026-05-04 17:48 53.66279 9.96852 1148 ft 186 kts 333°
2026-05-04 17:49 53.67419 9.95847 1925 ft 181 kts 331°
2026-05-04 17:49 53.68596 9.94852 2379 ft 199 kts 335°
2026-05-04 17:49 53.70018 9.94518 2872 ft 216 kts 359°
2026-05-04 17:49 53.71543 9.94977 3411 ft 229 kts 13°
2026-05-04 17:50 53.73069 9.95686 4250 ft 225 kts 12°
2026-05-04 17:50 53.74528 9.96777 4933 ft 240 kts 32°
2026-05-04 17:50 53.75593 9.99042 5281 ft 264 kts 67°
2026-05-04 17:50 53.76142 10.02116 5708 ft 280 kts 72°
2026-05-04 17:51 53.76803 10.05258 6410 ft 287 kts 68°
2026-05-04 17:51 53.77577 10.08407 7342 ft 292 kts 66°
2026-05-04 17:51 53.78416 10.11572 8400 ft 297 kts 65°
2026-05-04 17:51 53.79295 10.14755 9472 ft 300 kts 64°
2026-05-04 17:52 53.80205 10.17984 10426 ft 308 kts 64°
2026-05-04 17:52 53.81147 10.21310 11211 ft 322 kts 64°
2026-05-04 17:52 53.82156 10.24851 11726 ft 344 kts 64°
2026-05-04 17:52 53.83219 10.28572 12518 ft 355 kts 63°
2026-05-04 17:53 53.84304 10.32369 13435 ft 362 kts 63°
2026-05-04 17:53 53.85411 10.36250 14294 ft 369 kts 63°
2026-05-04 17:53 53.86521 10.40148 15078 ft 375 kts 63°
2026-05-04 17:53 53.87662 10.44163 15877 ft 382 kts 63°
2026-05-04 17:54 53.88823 10.48252 16685 ft 387 kts 63°
2026-05-04 17:54 53.89998 10.52401 17487 ft 393 kts 63°
2026-05-04 17:54 53.91195 10.56628 18317 ft 399 kts 63°
2026-05-04 17:54 53.92407 10.60915 19060 ft 406 kts 63°
2026-05-04 17:55 53.93690 10.65216 19780 ft 411 kts 58°
2026-05-04 17:55 53.95338 10.69207 20519 ft 414 kts 49°
2026-05-04 17:55 53.97210 10.72970 21253 ft 419 kts 45°
2026-05-04 17:55 53.99202 10.76633 21974 ft 424 kts 43°
2026-05-04 17:56 54.01230 10.80224 22673 ft 430 kts 42°
2026-05-04 17:56 54.03325 10.83908 23399 ft 436 kts 42°
2026-05-04 17:56 54.05446 10.87664 24001 ft 442 kts 42°
2026-05-04 17:56 54.07580 10.91486 24584 ft 448 kts 43°
2026-05-04 17:57 54.09729 10.95375 25171 ft 454 kts 43°
2026-05-04 17:57 54.11907 10.99327 25756 ft 459 kts 43°
2026-05-04 17:57 54.14105 11.03335 26325 ft 465 kts 43°
2026-05-04 17:57 54.16316 11.07403 26808 ft 469 kts 43°
2026-05-04 17:58 54.18536 11.11521 26962 ft 470 kts 44°
2026-05-04 17:58 54.20747 11.15644 26976 ft 471 kts 44°
2026-05-04 17:58 54.22966 11.19788 26977 ft 473 kts 44°
2026-05-04 17:58 54.25183 11.23946 26978 ft 473 kts 44°
2026-05-04 17:59 54.27398 11.28110 26978 ft 474 kts 44°
2026-05-04 17:59 54.29619 11.32293 26974 ft 474 kts 44°
2026-05-04 17:59 54.34025 11.40599 26982 ft 475 kts 44°
2026-05-04 18:00 54.36246 11.44790 26977 ft 475 kts 44°
2026-05-04 18:00 54.38466 11.48980 26975 ft 475 kts 43°
2026-05-04 18:00 54.40694 11.53184 27171 ft 477 kts 43°
2026-05-04 18:00 54.42934 11.57413 27712 ft 481 kts 43°
2026-05-04 18:01 54.45210 11.61659 28328 ft 484 kts 41°
2026-05-04 18:01 54.47731 11.65469 28852 ft 482 kts 31°
2026-05-04 18:01 54.50481 11.68813 29405 ft 485 kts 28°
2026-05-04 18:02 54.56189 11.75184 30406 ft 492 kts 26°
2026-05-04 18:02 54.59090 11.78307 30988 ft 493 kts 26°
2026-05-04 18:02 54.62009 11.81426 31586 ft 492 kts 26°
2026-05-04 18:02 54.64925 11.84539 32174 ft 493 kts 26°
2026-05-04 18:03 54.67837 11.87666 32703 ft 494 kts 26°
2026-05-04 18:03 54.70759 11.90822 33225 ft 496 kts 27°
2026-05-04 18:03 54.73686 11.94002 33713 ft 498 kts 27°
2026-05-04 18:03 54.76619 11.97203 34133 ft 500 kts 27°
2026-05-04 18:04 54.79572 12.00435 34486 ft 502 kts 28°
2026-05-04 18:04 54.82522 12.03670 34963 ft 501 kts 28°
2026-05-04 18:04 54.88392 12.10136 35940 ft 498 kts 28°
2026-05-04 18:05 54.91318 12.13371 36401 ft 497 kts 28°
2026-05-04 18:05 54.94194 12.16558 36839 ft 497 kts 28°
2026-05-04 18:05 54.97102 12.19787 37272 ft 496 kts 29°
2026-05-04 18:05 55.00014 12.23027 37700 ft 495 kts 29°
2026-05-04 18:06 55.05817 12.29503 38515 ft 494 kts 29°
2026-05-04 18:06 55.08717 12.32748 38832 ft 494 kts 29°
2026-05-04 18:06 55.11612 12.35991 39103 ft 495 kts 29°
2026-05-04 18:07 55.14503 12.39238 39403 ft 494 kts 29°
2026-05-04 18:07 55.17395 12.42490 39694 ft 494 kts 29°
2026-05-04 18:07 55.20291 12.45753 39966 ft 494 kts 29°
2026-05-04 18:07 55.23188 12.49023 40237 ft 494 kts 30°
2026-05-04 18:08 55.26023 12.52287 40492 ft 494 kts 30°
2026-05-04 18:08 55.28878 12.55650 40756 ft 494 kts 31°
2026-05-04 18:08 55.31732 12.59043 40923 ft 496 kts 31°
2026-05-04 18:08 55.34605 12.62467 40951 ft 502 kts 31°
2026-05-04 18:09 55.46351 12.76460 40942 ft 511 kts 31°
2026-05-04 18:10 55.52242 12.83497 40939 ft 511 kts 31°
2026-05-04 18:10 55.58134 12.90555 40940 ft 511 kts 31°
2026-05-04 18:11 55.64030 12.97643 40939 ft 512 kts 31°
2026-05-04 18:11 55.69883 13.04709 40939 ft 512 kts 31°
2026-05-04 18:12 55.75762 13.11831 40938 ft 512 kts 31°
2026-05-04 18:12 55.81643 13.18983 40936 ft 512 kts 31°
2026-05-04 18:13 55.87524 13.26161 40937 ft 512 kts 31°
2026-05-04 18:14 55.96340 13.36971 40937 ft 512 kts 31°
2026-05-04 18:14 56.02177 13.44163 40936 ft 512 kts 31°
2026-05-04 18:15 56.13897 13.58682 40932 ft 512 kts 31°
2026-05-04 18:16 56.19756 13.65984 40923 ft 512 kts 31°
2026-05-04 18:16 56.24621 13.72065 40917 ft 512 kts 31°
2026-05-04 18:17 56.33385 13.83071 40911 ft 512 kts 31°
2026-05-04 18:18 56.42150 13.94144 40902 ft 512 kts 32°
2026-05-04 18:18 56.47981 14.01544 40902 ft 512 kts 32°
2026-05-04 18:19 56.56694 14.12656 40896 ft 512 kts 32°
2026-05-04 18:19 56.62531 14.20135 40891 ft 512 kts 32°
2026-05-04 18:20 56.68350 14.27619 40887 ft 512 kts 32°
2026-05-04 18:20 56.74172 14.35138 40864 ft 513 kts 32°
2026-05-04 18:21 56.79848 14.42901 40866 ft 515 kts 36°
2026-05-04 18:21 56.85302 14.51400 40859 ft 515 kts 37°
2026-05-04 18:22 56.90722 14.60012 40857 ft 515 kts 38°
2026-05-04 18:22 56.96125 14.68650 40854 ft 516 kts 38°
2026-05-04 18:23 57.01526 14.77324 40857 ft 516 kts 38°
2026-05-04 18:23 57.06915 14.86016 40857 ft 516 kts 38°
2026-05-04 18:24 57.12311 14.94754 40852 ft 516 kts 38°
2026-05-04 18:24 57.17700 15.03515 40852 ft 517 kts 38°
2026-05-04 18:25 57.23083 15.12303 40845 ft 517 kts 38°
2026-05-04 18:25 57.28462 15.21121 40836 ft 517 kts 38°
2026-05-04 18:26 57.33843 15.29977 40832 ft 517 kts 38°
2026-05-04 18:26 57.39220 15.38862 40829 ft 518 kts 38°
2026-05-04 18:27 57.44594 15.47780 40820 ft 518 kts 38°
2026-05-04 18:27 57.49937 15.56682 40816 ft 519 kts 38°
2026-05-04 18:28 57.55310 15.65671 40816 ft 519 kts 38°
2026-05-04 18:28 57.60677 15.74689 40811 ft 519 kts 38°
2026-05-04 18:29 57.66041 15.83737 40802 ft 520 kts 38°
2026-05-04 18:29 57.71397 15.92810 40743 ft 520 kts 39°
2026-05-04 18:30 57.76749 16.01917 39686 ft 517 kts 38°
2026-05-04 18:30 57.79395 16.06436 39199 ft 514 kts 38°
2026-05-04 18:30 57.82038 16.10956 38651 ft 514 kts 38°
2026-05-04 18:31 57.84675 16.15475 37950 ft 514 kts 38°
2026-05-04 18:31 57.87313 16.20005 37244 ft 513 kts 38°
2026-05-04 18:31 57.89944 16.24535 36552 ft 512 kts 38°
2026-05-04 18:31 57.92567 16.29061 35864 ft 512 kts 38°
2026-05-04 18:32 57.95155 16.33540 35188 ft 512 kts 38°
2026-05-04 18:32 57.97762 16.38078 34606 ft 509 kts 38°
2026-05-04 18:32 58.00351 16.42596 34112 ft 505 kts 38°
2026-05-04 18:32 58.02914 16.47081 33604 ft 500 kts 38°
2026-05-04 18:33 58.05453 16.51529 33076 ft 495 kts 38°
2026-05-04 18:33 58.07969 16.55921 32518 ft 491 kts 38°
2026-05-04 18:33 58.10467 16.60277 31974 ft 487 kts 38°
2026-05-04 18:33 58.12950 16.64619 31430 ft 484 kts 38°
2026-05-04 18:34 58.15408 16.68926 30908 ft 480 kts 38°
2026-05-04 18:34 58.17862 16.73208 30391 ft 476 kts 36°
2026-05-04 18:34 58.20461 16.76985 29864 ft 467 kts 28°
2026-05-04 18:34 58.23232 16.80163 29156 ft 460 kts 24°
2026-05-04 18:35 58.26012 16.83115 28459 ft 454 kts 23°
2026-05-04 18:35 58.28739 16.85960 27788 ft 451 kts 22°
2026-05-04 18:35 58.31483 16.88811 27123 ft 448 kts 22°
2026-05-04 18:35 58.34201 16.91638 26474 ft 444 kts 22°
2026-05-04 18:36 58.36899 16.94448 25900 ft 439 kts 22°
2026-05-04 18:36 58.39572 16.97235 25400 ft 436 kts 22°
2026-05-04 18:36 58.42248 17.00027 24910 ft 436 kts 22°
2026-05-04 18:36 58.44891 17.02793 24427 ft 433 kts 22°
2026-05-04 18:37 58.47520 17.05549 23956 ft 429 kts 22°
2026-05-04 18:37 58.50128 17.08290 23483 ft 425 kts 22°
2026-05-04 18:37 58.52704 17.11000 22974 ft 422 kts 21°
2026-05-04 18:37 58.55276 17.13696 22415 ft 419 kts 21°
2026-05-04 18:38 58.57827 17.16360 21878 ft 416 kts 21°
2026-05-04 18:38 58.60358 17.19004 21347 ft 412 kts 21°
2026-05-04 18:38 58.62837 17.21607 20837 ft 409 kts 21°
2026-05-04 18:38 58.65323 17.24232 20335 ft 406 kts 21°
2026-05-04 18:39 58.67793 17.26848 19819 ft 403 kts 22°
2026-05-04 18:39 58.70241 17.29449 19335 ft 401 kts 22°
2026-05-04 18:39 58.72672 17.32037 18850 ft 398 kts 22°
2026-05-04 18:39 58.75093 17.34622 18371 ft 395 kts 22°
2026-05-04 18:40 58.77488 17.37182 17878 ft 392 kts 22°
2026-05-04 18:40 58.79865 17.39727 17339 ft 389 kts 22°
2026-05-04 18:40 58.82226 17.42259 16808 ft 386 kts 22°
2026-05-04 18:40 58.84567 17.44773 16272 ft 383 kts 22°
2026-05-04 18:41 58.86894 17.47276 15754 ft 380 kts 22°
2026-05-04 18:41 58.89196 17.49756 15253 ft 377 kts 22°
2026-05-04 18:41 58.91451 17.52190 14756 ft 375 kts 22°
2026-05-04 18:41 58.93724 17.54647 14265 ft 372 kts 23°
2026-05-04 18:42 58.95973 17.57081 13779 ft 369 kts 23°
2026-05-04 18:42 58.98208 17.59505 13276 ft 366 kts 23°
2026-05-04 18:42 59.00423 17.61912 12728 ft 363 kts 23°
2026-05-04 18:42 59.02622 17.64306 12199 ft 360 kts 23°
2026-05-04 18:43 59.04791 17.66666 11684 ft 356 kts 24°
2026-05-04 18:43 59.06937 17.69006 11171 ft 352 kts 24°
2026-05-04 18:43 59.09064 17.71327 10670 ft 348 kts 24°
2026-05-04 18:43 59.11165 17.73626 10163 ft 344 kts 24°
2026-05-04 18:44 59.13242 17.75900 9686 ft 340 kts 24°
2026-05-04 18:44 59.14600 17.77389 9332 ft 337 kts 24°
2026-05-04 18:44 59.17260 17.80318 8601 ft 313 kts 24°
2026-05-04 18:44 59.19107 17.82340 8072 ft 295 kts 23°
2026-05-04 18:45 59.20929 17.84047 7558 ft 288 kts 18°
2026-05-04 18:45 59.22738 17.85542 7060 ft 284 kts 18°
2026-05-04 18:45 59.24554 17.87012 6770 ft 282 kts 18°
2026-05-04 18:45 59.26334 17.88454 6717 ft 270 kts 18°
2026-05-04 18:46 59.28020 17.89834 6707 ft 255 kts 18°
2026-05-04 18:46 59.29642 17.91173 6719 ft 253 kts 18°
2026-05-04 18:46 59.31264 17.92523 6720 ft 252 kts 18°
2026-05-04 18:46 59.32880 17.93868 6719 ft 252 kts 18°
2026-05-04 18:47 59.34499 17.95213 6718 ft 252 kts 18°
2026-05-04 18:47 59.36118 17.96552 6721 ft 252 kts 16°
2026-05-04 18:47 59.37785 17.97477 6721 ft 247 kts
2026-05-04 18:47 59.39475 17.98018 6724 ft 246 kts
2026-05-04 18:48 59.41167 17.98501 6720 ft 246 kts
2026-05-04 18:48 59.42859 17.98979 6723 ft 246 kts
2026-05-04 18:48 59.44552 17.99456 6718 ft 246 kts
2026-05-04 18:48 59.46215 17.99923 6719 ft 246 kts
2026-05-04 18:49 59.47915 18.00407 6716 ft 246 kts
2026-05-04 18:49 59.49602 18.00888 6715 ft 245 kts
2026-05-04 18:49 59.51291 18.01368 6693 ft 245 kts
2026-05-04 18:49 59.52975 18.01842 6694 ft 245 kts
2026-05-04 18:50 59.54661 18.02313 6694 ft 245 kts
2026-05-04 18:50 59.56350 18.02784 6693 ft 245 kts
2026-05-04 18:50 59.58038 18.03263 6694 ft 245 kts
2026-05-04 18:50 59.59729 18.03743 6694 ft 245 kts
2026-05-04 18:51 59.61420 18.04223 6889 ft 246 kts
2026-05-04 18:51 59.63132 18.04701 6773 ft 250 kts
2026-05-04 18:51 59.64865 18.05178 6452 ft 249 kts
2026-05-04 18:51 59.66565 18.05648 6202 ft 245 kts
2026-05-04 18:52 59.68246 18.06113 5797 ft 246 kts
2026-05-04 18:52 59.69984 18.06603 5137 ft 258 kts
2026-05-04 18:52 59.71747 18.07295 4616 ft 264 kts
2026-05-04 18:52 59.73562 18.08112 4176 ft 264 kts
2026-05-04 18:53 59.75331 18.08911 3752 ft 264 kts
2026-05-04 18:53 59.77125 18.09717 3298 ft 265 kts
2026-05-04 18:53 59.78925 18.10527 2861 ft 265 kts
2026-05-04 18:53 59.80714 18.11239 2549 ft 259 kts 360°
2026-05-04 18:54 59.82441 18.10730 2491 ft 249 kts 333°
2026-05-04 18:54 59.83792 18.08731 2487 ft 240 kts 306°
2026-05-04 18:54 59.84461 18.05765 2486 ft 236 kts 278°
2026-05-04 18:54 59.84290 18.02562 2482 ft 237 kts 249°
2026-05-04 18:55 59.83231 18.00177 2478 ft 230 kts 214°
2026-05-04 18:55 59.80198 17.99891 2482 ft 211 kts 179°
2026-05-04 18:55 59.78784 18.00186 2498 ft 198 kts 182°
2026-05-04 18:56 59.77473 18.00218 2496 ft 178 kts 190°
2026-05-04 18:56 59.76310 17.99967 2477 ft 160 kts 197°
2026-05-04 18:56 59.75239 17.99616 2286 ft 153 kts 198°
2026-05-04 18:56 59.74216 17.99280 2075 ft 144 kts 199°
2026-05-04 18:57 59.73271 17.98935 1881 ft 132 kts 200°
2026-05-04 18:57 59.72402 17.98619 1718 ft 124 kts 201°
2026-05-04 18:57 59.71567 17.98315 1533 ft 123 kts 201°
2026-05-04 18:57 59.70721 17.98007 1378 ft 124 kts 201°
2026-05-04 18:58 59.69865 17.97692 1204 ft 126 kts 200°
2026-05-04 18:58 59.69002 17.97377 1026 ft 127 kts 197°
2026-05-04 18:58 59.68133 17.97065 838 ft 127 kts 197°
2026-05-04 18:58 59.67268 17.96750 665 ft 125 kts 195°
2026-05-04 18:59 59.66411 17.96441 487 ft 125 kts 195°
2026-05-04 18:59 59.65565 17.96133 328 ft 123 kts 194°
2026-05-04 18:59 59.64721 17.95846 142 ft 120 kts 192°
2026-05-04 18:59 59.64019 17.95550 123 ft 60 kts 186°
2026-05-04 19:00 59.63727 17.95466 135 ft 38 kts 189°
2026-05-04 19:00 59.63486 17.95364 138 ft 34 kts 200°
2026-05-04 19:00 59.63316 17.95157 140 ft 18 kts 220°
2026-05-04 19:00 59.63252 17.94986 142 ft 12 kts 265°
2026-05-04 19:01 59.63276 17.94924 141 ft 3 kts 342°
2026-05-04 19:01 59.63318 17.94921 141 ft 9 kts
2026-05-04 19:01 59.63393 17.94942 139 ft 13 kts 11°
2026-05-04 19:01 59.63504 17.94985 137 ft 19 kts 11°
2026-05-04 19:02 59.63649 17.95028 135 ft 24 kts
2026-05-04 19:02 59.63817 17.95094 125 ft 26 kts 10°
2026-05-04 19:02 59.64014 17.95165 126 ft 31 kts 10°
2026-05-04 19:02 59.64136 17.95210 123 ft 0 kts 11°
2026-05-04 19:03 59.64137 17.95210 123 ft 0 kts 11°
2026-05-04 19:03 59.64148 17.95214 123 ft 4 kts 11°
2026-05-04 19:03 59.64172 17.95223 123 ft 7 kts 11°
2026-05-04 19:03 59.64238 17.95248 123 ft 12 kts 11°
2026-05-04 19:04 59.64339 17.95285 120 ft 17 kts 10°
2026-05-04 19:04 59.64472 17.95333 117 ft 22 kts 10°
2026-05-04 19:04 59.64635 17.95392 114 ft 26 kts 10°
2026-05-04 19:04 59.64894 17.95485 113 ft 31 kts 10°
2026-05-04 19:05 59.65112 17.95475 113 ft 32 kts 344°
2026-05-04 19:05 59.65258 17.95397 117 ft 32 kts 346°
2026-05-04 19:05 59.65476 17.95290 119 ft 33 kts 344°
2026-05-04 19:05 59.65695 17.95165 123 ft 29 kts 339°
2026-05-04 19:06 59.65743 17.94940 126 ft 15 kts 251°
2026-05-04 19:06 59.65712 17.94722 123 ft 18 kts 255°
2026-05-04 19:06 59.65679 17.94460 124 ft 21 kts 256°
2026-05-04 19:06 59.65640 17.94159 122 ft 24 kts 255°
2026-05-04 19:07 59.65596 17.93820 122 ft 27 kts 256°
2026-05-04 19:07 59.65551 17.93451 122 ft 29 kts 256°
2026-05-04 19:07 59.65508 17.93115 120 ft 22 kts 255°
2026-05-04 19:07 59.65458 17.92938 119 ft 5 kts 201°
2026-05-04 19:08 59.65448 17.92948 124 ft 1 kts 150°
2026-05-04 19:08 59.65433 17.92967 119 ft 4 kts 144°
2026-05-04 19:08 59.65421 17.93028 121 ft 6 kts 94°
2026-05-04 19:08 59.65434 17.93122 120 ft 9 kts 71°
2026-05-04 19:09 59.65436 17.93192 121 ft 1 kts 125°
2026-05-04 19:09 59.65432 17.93196 122 ft 0 kts 139°
2026-05-04 19:09 59.65429 17.93199 118 ft 0 kts 147°
2026-05-04 19:09 59.65412 17.93195 121 ft 4 kts 193°
2026-05-04 19:10 59.65396 17.93170 118 ft 0 kts 222°